Back to catalog

ECHOSTAR 8

AliveCommunicationsGEO
NORAD 27501·PAYLOAD·🇺🇸 United States

Launched Aug 22, 2002 from Baikonur Cosmodrome

Loading…

TLE

FreshSource: Space-Track

Epoch: Sep 14, 2026, 06:00 UTC

1 27501U 02039A   26257.25055087 -.00000237  00000-0  00000-0 0  9996
2 27501   9.0325  60.8293 0010054  71.3217 112.1917  0.98511987 52934

Track ECHOSTAR 8 in real time with AllMySat

Download on the App Store